Weather History for Massena, NY

Change the Weather History Date:

Monday, August 6, 2012

  Actual Average Record
Temperature  
Mean Temperature 66 °F 68 °F  
Max Temperature 76 °F 79 °F 93 °F (2001)
Min Temperature 56 °F 57 °F 43 °F (1987)
Cooling Degree Days 1 4  
Month to date cooling degree days 52 24  
Year to date cooling degree days 388 258  
Since 1 June cooling degree days 350 244  
Growing Degree Days 16 (Base 50)    
Moisture  
Dew Point 56 °F    
Average Humidity 70    
Maximum Humidity 93    
Minimum Humidity 46    
Precipitation  
Precipitation 0.00 in 0.12 in 2.42 in (1983)
Month to date precipitation 0.14 0.71  
Year to date precipitation 15.69 19.73  
Sea Level Pressure  
Sea Level Pressure 30.00 in    
Wind  
Wind Speed 8 mph (WSW)    
Max Wind Speed 15 mph    
Max Gust Speed 18 mph    
Visibility 10 miles    
Events      
T = Trace of Precipitation, MM = Missing Value Source: NWS Daily Summary

Daily Weather History Graph

Daily Weather History Graph

Search for Another Location

Airport:

Trip Planner

Search our weather history database for the weather conditions in past years. The results will help you decide how hot, cold, wet, or windy it might be!

Date:

Astronomy

Aug. 06, 2012 Rise Set
Actual Time 5:51 AM EDT 8:18 PM EDT
Civil Twilight 5:18 AM EDT 8:51 PM EDT
Nautical Twilight 4:36 AM EDT 9:32 PM EDT
Astronomical Twilight 3:50 AM EDT 10:18 PM EDT
Moon 10:08 PM EDT (8/6) 10:54 AM EDT (8/6)
Length of Visible Light 15h 33m
Length of Day
14h 27m
Waning Gibbous, 78% of the Moon is Illuminated
Aug 6
Waning Gibbous
Aug 9
Last Quarter
Aug 17
New
Aug 24
First Quarter
Aug 31
Full

Hourly Weather History & Observations

Time (EDT) Temp. Dew Point Humidity Pressure Visibility Wind Dir Wind Speed Gust Speed Precip Events Conditions
12:53 AM 66.9 °F 57.9 °F 73% 29.91 in 10.0 mi WSW 10.4 mph - N/A   Clear
1:53 AM 64.0 °F 57.0 °F 78% 29.93 in 10.0 mi SW 9.2 mph - N/A   Clear
2:53 AM 60.1 °F 55.9 °F 86% 29.94 in 10.0 mi SSW 6.9 mph - N/A   Clear
3:53 AM 59.0 °F 55.9 °F 90% 29.94 in 10.0 mi SW 4.6 mph - N/A   Clear
4:53 AM 57.0 °F 55.9 °F 96% 29.96 in 10.0 mi SSW 5.8 mph - N/A   Clear
5:53 AM 59.0 °F 55.0 °F 87% 29.99 in 10.0 mi WSW 5.8 mph - N/A   Clear
6:53 AM 60.1 °F 55.9 °F 86% 30.01 in 10.0 mi SW 4.6 mph - N/A   Clear
7:53 AM 66.0 °F 55.0 °F 68% 30.02 in 10.0 mi West 11.5 mph - N/A   Clear
8:53 AM 66.9 °F 55.9 °F 68% 30.03 in 10.0 mi West 12.7 mph - N/A   Clear
9:53 AM 66.9 °F 55.0 °F 66% 30.03 in 10.0 mi WNW 11.5 mph 18.4 mph N/A   Scattered Clouds
10:53 AM 68.0 °F 55.9 °F 65% 30.05 in 10.0 mi West 9.2 mph - N/A   Mostly Cloudy
11:53 AM 70.0 °F 55.0 °F 59% 30.05 in 10.0 mi West 5.8 mph - N/A   Overcast
12:53 PM 70.0 °F 55.0 °F 59% 30.05 in 10.0 mi West 11.5 mph - N/A   Overcast
1:53 PM 72.0 °F 55.9 °F 57% 30.04 in 10.0 mi West 12.7 mph 18.4 mph N/A   Overcast
2:53 PM 73.9 °F 55.0 °F 52% 30.04 in 10.0 mi West 10.4 mph - N/A   Mostly Cloudy
3:53 PM 75.0 °F 55.0 °F 50% 30.02 in 10.0 mi SW 11.5 mph - N/A   Partly Cloudy
4:53 PM 75.0 °F 53.1 °F 46% 30.01 in 10.0 mi WSW 5.8 mph - N/A   Clear
5:53 PM 75.9 °F 55.0 °F 48% 29.99 in 10.0 mi WSW 6.9 mph - N/A   Clear
6:53 PM 73.9 °F 55.0 °F 52% 29.98 in 10.0 mi SW 9.2 mph - N/A   Clear
7:53 PM 69.1 °F 57.0 °F 65% 29.98 in 10.0 mi SSW 4.6 mph - N/A   Clear
8:53 PM 66.0 °F 57.0 °F 73% 29.98 in 10.0 mi SSW 3.5 mph - N/A   Clear
9:53 PM 63.0 °F 57.0 °F 81% 29.99 in 10.0 mi SW 5.8 mph - N/A   Clear
10:53 PM 63.0 °F 57.9 °F 84% 29.99 in 10.0 mi SW 6.9 mph - N/A   Clear
11:53 PM 63.0 °F 57.9 °F 84% 29.99 in 10.0 mi South 5.8 mph - N/A   Clear